Weather History for Red Oak, IA

Change the Weather History Date:

Thursday, March 20, 2014

  Actual Average Record
Temperature  
Mean Temperature 42 °F -  
Max Temperature 64 °F 53 °F 73 °F (1997)
Min Temperature 21 °F 29 °F 8 °F (1951)
Degree Days  
Heating Degree Days 22    
Moisture  
Dew Point 26 °F    
Average Humidity 58    
Maximum Humidity 93    
Minimum Humidity 22    
Precipitation  
Precipitation 0.00 in - - ()
Sea Level Pressure  
Sea Level Pressure 29.94 in    
Wind  
Wind Speed 3 mph (East)    
Max Wind Speed 14 mph    
Max Gust Speed 20 mph    
Visibility 10 miles    
Events      
Averages and records for this station are not official NWS values.
T = Trace of Precipitation, MM = Missing Value Source: NWS Daily Summary

Daily Weather History Graph

Daily Weather History Graph

Search for Another Location

Airport:

Trip Planner

Search our weather history database for the weather conditions in past years. The results will help you decide how hot, cold, wet, or windy it might be!

Date:

Astronomy

Mar. 20, 2014 Rise Set
Actual Time 7:24 AM CDT 7:33 PM CDT
Civil Twilight 6:56 AM CDT 8:00 PM CDT
Nautical Twilight 6:24 AM CDT 8:32 PM CDT
Astronomical Twilight 5:52 AM CDT 9:05 PM CDT
Moon 11:56 PM CDT (3/20) 9:29 AM CDT (3/20)
Length of Visible Light 13h 03m
Length of Day
12h 08m
Waning Gibbous, 84% of the Moon is Illuminated
Mar 20
Waning Gibbous
Mar 23
Last Quarter
Mar 30
New
Apr 7
First Quarter
Apr 15
Full

Hourly Weather History & Observations

Time (CDT) Temp. Windchill Dew Point Humidity Pressure Visibility Wind Dir Wind Speed Gust Speed Precip Events Conditions
12:15 AM 28.4 °F - 23.0 °F 80% 30.06 in 10.0 mi Calm Calm - N/A   Partly Cloudy
12:35 AM 26.6 °F - 21.2 °F 80% 30.05 in 10.0 mi Calm Calm - N/A   Partly Cloudy
12:55 AM 26.6 °F - 21.2 °F 80% 30.05 in 10.0 mi Calm Calm - N/A   Clear
1:15 AM 24.8 °F - 21.2 °F 86% 30.04 in 10.0 mi Calm Calm - N/A   Clear
1:35 AM 26.6 °F - 21.2 °F 80% 30.04 in 10.0 mi Calm Calm - N/A   Clear
1:55 AM 26.6 °F - 21.2 °F 80% 30.04 in 10.0 mi Calm Calm - N/A   Clear
2:15 AM 24.8 °F - 21.2 °F 86% 30.04 in 10.0 mi Calm Calm - N/A   Clear
2:35 AM 24.8 °F - 21.2 °F 86% 30.05 in 10.0 mi Calm Calm - N/A   Clear
2:55 AM 24.8 °F - 21.2 °F 86% 30.04 in 10.0 mi Calm Calm - N/A   Clear
3:15 AM 24.8 °F - 21.2 °F 86% 30.04 in 10.0 mi Calm Calm - N/A   Clear
3:35 AM 23.0 °F - 21.2 °F 93% 30.04 in 10.0 mi Calm Calm - N/A   Clear
3:55 AM 23.0 °F - 21.2 °F 93% 30.04 in 10.0 mi Calm Calm - N/A   Clear
4:15 AM 21.2 °F - 19.4 °F 93% 30.03 in 10.0 mi Calm Calm - N/A   Clear
4:35 AM 23.0 °F - 21.2 °F 93% 30.04 in 10.0 mi Calm Calm - N/A   Clear
4:55 AM 23.0 °F 18.4 °F 21.2 °F 93% 30.04 in 10.0 mi NE 3.5 mph - N/A   Clear
5:15 AM 24.8 °F - 21.2 °F 86% 30.03 in 10.0 mi Calm Calm - N/A   Clear
5:35 AM 21.2 °F - 19.4 °F 93% 30.05 in 10.0 mi Calm Calm - N/A   Clear
5:55 AM 23.0 °F - 21.2 °F 93% 30.04 in 10.0 mi Calm Calm - N/A   Clear
6:15 AM 23.0 °F - 21.2 °F 93% 30.04 in 10.0 mi Calm Calm - N/A   Clear
6:35 AM 24.8 °F - 21.2 °F 86% 30.03 in 10.0 mi Calm Calm - N/A   Clear
6:55 AM 24.8 °F - 21.2 °F 86% 30.03 in 10.0 mi Calm Calm - N/A   Clear
7:15 AM 24.8 °F 20.5 °F 21.2 °F 86% 30.03 in 10.0 mi NNE 3.5 mph - N/A   Partly Cloudy
7:35 AM 23.0 °F - 21.2 °F 93% 30.02 in 10.0 mi Calm Calm - N/A   Clear
7:55 AM 23.0 °F - 21.2 °F 93% 30.02 in 10.0 mi Calm Calm - N/A   Clear
8:15 AM 24.8 °F 19.1 °F 23.0 °F 93% 30.02 in 10.0 mi NNE 4.6 mph - N/A   Mostly Cloudy
8:35 AM 28.4 °F - 24.8 °F 86% 30.02 in 10.0 mi Calm Calm - N/A   Mostly Cloudy
8:55 AM 30.2 °F - 26.6 °F 86% 30.02 in 10.0 mi Calm Calm - N/A   Partly Cloudy
9:15 AM 33.8 °F - 26.6 °F 75% 30.02 in 10.0 mi Calm Calm - N/A   Clear
9:35 AM 35.6 °F - 28.4 °F 75% 30.01 in 9.0 mi Calm Calm - N/A   Clear
9:55 AM 39.2 °F - 30.2 °F 70% 30.01 in 9.0 mi Calm Calm - N/A   Clear
10:15 AM 46.4 °F 41.5 °F 30.2 °F 53% 30.00 in 10.0 mi ESE 10.4 mph - N/A   Clear
10:35 AM 48.2 °F - 30.2 °F 50% 30.00 in 10.0 mi ESE 11.5 mph 17.3 mph N/A   Clear
10:55 AM 48.2 °F - 30.2 °F 50% 29.99 in 10.0 mi SE 12.7 mph - N/A   Clear
11:15 AM 50.0 °F - 30.2 °F 47% 29.98 in 10.0 mi SE 11.5 mph 17.3 mph N/A   Clear
11:35 AM 51.8 °F - 30.2 °F 44% 29.97 in 10.0 mi SE 11.5 mph - N/A   Clear
11:55 AM 53.6 °F - 28.4 °F 38% 29.95 in 10.0 mi SE 10.4 mph - N/A   Clear
12:15 PM 53.6 °F - 28.4 °F 38% 29.94 in 10.0 mi East 10.4 mph - N/A   Clear
12:35 PM 55.4 °F - 28.4 °F 36% 29.93 in 10.0 mi ESE 9.2 mph 15.0 mph N/A   Clear
12:55 PM 57.2 °F - 28.4 °F 33% 29.92 in 10.0 mi East 10.4 mph - N/A   Clear
1:15 PM 59.0 °F - 28.4 °F 31% 29.91 in 10.0 mi ESE 6.9 mph 12.7 mph N/A   Clear
1:35 PM 59.0 °F - 26.6 °F 29% 29.90 in 10.0 mi Variable 6.9 mph 16.1 mph N/A   Clear
1:55 PM 60.8 °F - 26.6 °F 27% 29.89 in 10.0 mi ESE 8.1 mph 18.4 mph N/A   Clear
2:15 PM 60.8 °F - 26.6 °F 27% 29.88 in 10.0 mi SE 9.2 mph - N/A   Clear
2:35 PM 60.8 °F - 26.6 °F 27% 29.86 in 10.0 mi ESE 8.1 mph 13.8 mph N/A   Clear
2:55 PM 60.8 °F - 26.6 °F 27% 29.86 in 10.0 mi SSE 13.8 mph 19.6 mph N/A   Clear
3:15 PM 62.6 °F - 26.6 °F 26% 29.85 in 10.0 mi SE 5.8 mph 18.4 mph N/A   Clear
3:35 PM 62.6 °F - 26.6 °F 26% 29.84 in 10.0 mi South 8.1 mph 15.0 mph N/A   Clear
3:55 PM 62.6 °F - 26.6 °F 26% 29.83 in 10.0 mi SSW 8.1 mph - N/A   Clear
4:15 PM 64.4 °F - 26.6 °F 24% 29.82 in 10.0 mi Variable 6.9 mph 12.7 mph N/A   Clear
4:35 PM 64.4 °F - 26.6 °F 24% 29.81 in 10.0 mi SW 8.1 mph - N/A   Clear
4:55 PM 64.4 °F - 26.6 °F 24% 29.81 in 10.0 mi South 3.5 mph - N/A   Clear
5:15 PM 64.4 °F - 24.8 °F 22% 29.81 in 10.0 mi Calm Calm - N/A   Clear
5:35 PM 64.4 °F - 24.8 °F 22% 29.81 in 10.0 mi Calm Calm - N/A   Clear
5:55 PM 64.4 °F - 24.8 °F 22% 29.81 in 10.0 mi Calm Calm - N/A   Clear
6:15 PM 64.4 °F - 24.8 °F 22% 29.81 in 10.0 mi West 5.8 mph - N/A   Clear
6:30 PM 62.6 °F - 24.8 °F 24% 29.82 in 10.0 mi WNW 4.6 mph - N/A   Clear
6:55 PM 59.0 °F - 26.6 °F 29% 29.82 in 10.0 mi NW 4.6 mph - N/A   Clear
7:15 PM 55.4 °F - 26.6 °F 33% 29.83 in 10.0 mi NW 4.6 mph - N/A   Clear
7:35 PM 55.4 °F - 24.8 °F 31% 29.83 in 10.0 mi North 6.9 mph - N/A   Clear
7:55 PM 48.2 °F - 26.6 °F 43% 29.84 in 10.0 mi Calm Calm - N/A   Clear
8:15 PM 48.2 °F - 26.6 °F 43% 29.84 in 10.0 mi NNE 4.6 mph - N/A   Clear
8:35 PM 50.0 °F - 26.6 °F 40% 29.85 in 10.0 mi NNE 5.8 mph - N/A   Clear
8:55 PM 50.0 °F - 28.4 °F 43% 29.85 in 10.0 mi NE 5.8 mph - N/A   Scattered Clouds
9:15 PM 50.0 °F - 30.2 °F 47% 29.86 in 10.0 mi ENE 5.8 mph - N/A   Partly Cloudy
9:35 PM 48.2 °F - 30.2 °F 50% 29.86 in 10.0 mi ENE 8.1 mph - N/A   Clear
9:55 PM 46.4 °F 41.5 °F 30.2 °F 53% 29.87 in 10.0 mi NNE 10.4 mph - N/A   Clear
10:15 PM 46.4 °F 42.4 °F 32.0 °F 57% 29.87 in 10.0 mi NE 8.1 mph - N/A   Partly Cloudy
10:35 PM 46.4 °F 41.9 °F 32.0 °F 57% 29.86 in 10.0 mi NE 9.2 mph - N/A   Partly Cloudy
10:55 PM 44.6 °F 40.2 °F 30.2 °F 57% 29.86 in 10.0 mi NE 8.1 mph - N/A   Clear
11:15 PM 44.6 °F 39.7 °F 30.2 °F 57% 29.86 in - NE 9.2 mph - N/A   Clear
11:35 PM 44.6 °F 41.4 °F 30.2 °F 57% 29.86 in 10.0 mi East 5.8 mph 15.0 mph N/A   Clear
11:55 PM 44.6 °F 39.7 °F 30.2 °F 57% 29.85 in 10.0 mi East 9.2 mph 16.1 mph N/A   Clear